Weather in Lambi

Greece     36°53′25″N   27°17′21″E
temp.,
°C
wind,
m/s
gust,
m/s
humid.,
%
clouds,
%
prec.,
mm/h
press.,
hPa
HPBL,
m
11 may, tue
tue1100:00+18nw57700 0.0 1011168
03:00+17nnw57700 0.0 1011243
06:00+16nnw67645 0.0 1010278
09:00+18nnw67575 0.0 1011356
12:00+20nw66525 0.0 1011383
15:00+20wnw76587 0.0 1011325
18:00+19nw89670 0.0 1010311
21:00+18nw68780 0.0 1010197
12 may, wed
wed1200:00+18nw56811 0.0 1010194
03:00+18nw44791 0.0 1008178
06:00+17nnw34715 0.0 1008193
09:00+19nw33580 0.0 1010305
12:00+20wnw32500 0.0 1010369
15:00+20wnw545742 0.0 1010376
18:00+20w446370 0.0 1010261
21:00+18wsw227210 0.0 1010129
13 may, thu
thu1300:00+17s22690 0.0 1011104
03:00+17se22690 0.0 101096
06:00+18se44720 0.0 1010133
09:00+20sse44621 0.0 1011260
12:00+22ssw455663 0.0 1011370
15:00+22wsw346037 0.0 1011408
18:00+21sw33635 0.0 1011406
21:00+19s22760 0.0 101230
14 may, fri
fri1400:00+18se45849 0.0 1012162
03:00+18sse45822 0.0 1012185
06:00+18s35800 0.0 1013341
09:00+20ssw57743 0.0 1014647
12:00+21ssw55690 0.0 1015485
15:00+21sw45680 0.0 1015435
18:00+21wsw33670 0.0 1015274
21:00+19wnw11780 0.0 101631
15 may, sat
sat1500:00+18nw12760 0.0 101635
03:00+18nnw22740 0.0 101540
06:00+18n22735 0.0 101469
09:00+20nw336052 0.0 1014216
12:00+21wnw44575 0.0 1015302
15:00+21w55686 0.0 1015348
18:00
21:00+19wnw22705 0.0 101221